Hourly Weather Roundup
Issued by NWS Central Illinois

Home | Current Version | Previous Version | Text Only | Print | Product List | Glossary On
Versions: 1 2 3 4 5 6 7 8 9 10 11 12 13 14 15 16 17 18 19 20 21 22 23 24 25 26 27 28 29 30 31 32 33 34 35 36 37 38 39 40 41 42 43 44 45 46 47 48 49 50
000
NZUS43 KILX 250710
HWRILX

Area Weather Roundup
National Weather Service Lincoln IL
200 AM CDT WED APR 25 2018

NOTE:  "FAIR" indicates few or no clouds below 12,000 feet, with
       no sigificant weather and/or obstructions to visibility.


CITY           SKY/WX    TMP DP  RH WIND       PRES   REMARKS
Bloomington    FAIR      49  46  90 NE9       29.99F
Champaign      FAIR      47  47 100 N7        29.97F FOG
Danville       FAIR      46  46 100 NW7       29.95S FOG
Decatur        FOG       49  47  93 CALM      29.97F VSB 1/2
Effingham      FAIR      47  47 100 CALM      29.99F FOG
Flora          FAIR      52  51  93 NW6       29.98F FOG
Galesburg      NOT AVBL
Jacksonville   MOCLDY    50  32  50 NW6       29.98F
Lacon          FAIR      51  47  86 E6        30.00R
Lawrenceville  FAIR      50  50 100 MISG      29.96S FOG
Litchfield     PTCLDY    48  47  97 CALM      29.98F
$$


CITY           SKY/WX    TMP DP  RH WIND       PRES   REMARKS
Lincoln        FAIR      51  50  98 CALM      29.97F FOG
Macomb         PTCLDY    54  40  59 NW9       30.01F
Mattoon        FOG       48  48 100 W5        29.96F VSB 1/2
Mt Carmel AP   FOG       47  46  97 W5        29.96F VSB 1/2
Olney-Noble AP FAIR      49  47  93 NW5       29.98F FOG
Paris AP       FAIR      46  46 100 N6        29.97F FOG
Peoria         FAIR      56  47  71 CALM      29.98F
Pontiac        FAIR      46  46  98 NE6       30.02R FOG
Rantoul        FAIR      50  49  95 N5        29.98F
Robinson       FAIR      45  45 100 NW3       29.97F FOG
Springfield    FAIR      53  49  86 CALM      29.98F
Taylorville    FAIR      50  49  99 SE3       29.97F
$$

...REGIONAL REPORTS...


CITY           SKY/WX    TMP DP  RH WIND       PRES   REMARKS
Chicago O`Hare CLOUDY    48  32  53 N22       30.04S
Kankakee       FAIR      47  45  93 N12       30.01S
La Salle       FAIR      53  47  82 NE14      30.03R
Moline         FAIR      61  40  45 N10       30.00S
Mount Sterling CLEAR     55  38  53 NW10      29.99F
Mount Vernon     N/A     45  44  97 CALM      29.98  FOG
Pittsfield     CLEAR     56  37  48 NW6       30.00F
Quincy         CLEAR     54  40  59 NW10      30.01F
Rockford       CLOUDY    48  31  51 NE16      30.10R
$$


CITY           SKY/WX    TMP DP  RH WIND       PRES   REMARKS
Burlington     PTCLDY    59  40  49 N16G23    30.01F
Cedar Rapids   FAIR      53  35  50 N15       30.08R
Des Moines     CLOUDY    53  42  66 N13       30.18R
Kirksville     MOCLDY    58  46  64 N14       30.08F
Ottumwa        MOCLDY    54  38  54 N16       30.11R
St Louis       PTCLDY    51  42  71 W7        29.98F
$$


CITY           SKY/WX    TMP DP  RH WIND       PRES   REMARKS
Terre Haute    FAIR      51  50  96 NW3       29.95F
Evansville     FAIR      53  53 100 W6        29.96F FOG
Indianapolis   MOCLDY    52  50  93 N6        29.93F
Lafayette      FAIR      48  47  96 NW7       29.95F
Madison        CLOUDY    48  32  53 NE12      30.11R
Milwaukee      FAIR      43  33  68 N18G33    30.09R WCI  35
$$






USA.gov is the U.S. government's official web portal to all federal, state and local government web resources and services.